TimeCST,TemperatureF,Dew PointF,Humidity,Sea Level PressureIn,VisibilityMPH,Wind Direction,Wind SpeedMPH,Gust SpeedMPH,PrecipitationIn,Events,Conditions,WindDirDegrees,DateUTC
12:53 AM,35.1,30.9,85,30.41,10.0,Calm,Calm,-,N/A,,Clear,0,2012-11-17 06:53:00
1:53 AM,34.0,30.0,85,30.41,10.0,Calm,Calm,-,N/A,,Clear,0,2012-11-17 07:53:00
2:53 AM,33.1,28.9,85,30.41,10.0,Calm,Calm,-,N/A,,Clear,0,2012-11-17 08:53:00
3:53 AM,32.0,28.9,88,30.41,9.0,Calm,Calm,-,N/A,,Clear,0,2012-11-17 09:53:00
4:32 AM,33.8,28.4,81,30.41,10.0,Calm,Calm,-,N/A,,Scattered Clouds,0,2012-11-17 10:32:00
4:41 AM,32.0,28.4,87,30.41,4.0,Calm,Calm,-,N/A,,Mostly Cloudy,0,2012-11-17 10:41:00
4:49 AM,30.2,28.4,93,30.42,1.0,Calm,Calm,-,N/A,,Mist,0,2012-11-17 10:49:00
4:53 AM,30.9,28.9,92,30.43,1.8,Calm,Calm,-,N/A,,Overcast,0,2012-11-17 10:53:00
5:00 AM,32.0,28.4,87,30.42,0.2,Calm,Calm,-,N/A,Fog,Fog,0,2012-11-17 11:00:00
5:27 AM,32.0,30.2,93,30.42,1.0,Calm,Calm,-,N/A,,Mist,0,2012-11-17 11:27:00
5:32 AM,32.0,30.2,93,30.42,2.5,Calm,Calm,-,0.00,,Scattered Clouds,0,2012-11-17 11:32:00
5:41 AM,32.0,28.4,87,30.42,3.0,Calm,Calm,-,0.00,,Partly Cloudy,0,2012-11-17 11:41:00
5:53 AM,30.9,28.9,92,30.43,7.0,Calm,Calm,-,0.00,,Scattered Clouds,0,2012-11-17 11:53:00
6:53 AM,30.0,28.0,92,30.44,7.0,Calm,Calm,-,N/A,,Clear,0,2012-11-17 12:53:00
7:18 AM,32.0,28.4,87,30.44,5.0,Calm,Calm,-,N/A,,Scattered Clouds,0,2012-11-17 13:18:00
7:22 AM,32.0,28.4,87,30.44,0.8,Calm,Calm,-,0.00,Snow,Light Snow,0,2012-11-17 13:22:00
7:30 AM,30.2,30.2,100,30.44,0.2,Calm,Calm,-,0.00,Fog-Snow,Light Snow,0,2012-11-17 13:30:00
7:53 AM,33.1,32.0,96,30.46,1.0,Calm,Calm,-,0.00,,Mist,0,2012-11-17 13:53:00
8:11 AM,35.6,33.8,93,30.46,2.0,Calm,Calm,-,N/A,,Partly Cloudy,0,2012-11-17 14:11:00
8:21 AM,35.6,33.8,93,30.46,4.0,Calm,Calm,-,N/A,,Partly Cloudy,0,2012-11-17 14:21:00
8:53 AM,41.0,36.0,82,30.47,10.0,Calm,Calm,-,N/A,,Clear,0,2012-11-17 14:53:00
9:53 AM,48.9,36.0,61,30.47,10.0,Calm,Calm,-,N/A,,Clear,0,2012-11-17 15:53:00
10:53 AM,55.0,30.9,40,30.46,10.0,Variable,3.5,-,N/A,,Clear,0,2012-11-17 16:53:00
11:53 AM,57.9,28.9,33,30.44,10.0,Variable,3.5,-,N/A,,Clear,0,2012-11-17 17:53:00
12:53 PM,61.0,27.0,27,30.40,10.0,Calm,Calm,-,N/A,,Clear,0,2012-11-17 18:53:00
1:53 PM,63.0,26.1,25,30.37,10.0,Variable,4.6,-,N/A,,Clear,0,2012-11-17 19:53:00
2:53 PM,63.0,27.0,26,30.36,10.0,South,4.6,-,N/A,,Clear,170,2012-11-17 20:53:00
3:53 PM,63.0,26.1,25,30.36,10.0,Calm,Calm,-,N/A,,Clear,0,2012-11-17 21:53:00
4:53 PM,60.1,28.0,30,30.34,10.0,Calm,Calm,-,N/A,,Clear,0,2012-11-17 22:53:00
5:53 PM,54.0,28.0,37,30.35,10.0,Calm,Calm,-,N/A,,Clear,0,2012-11-17 23:53:00
6:53 PM,43.0,32.0,65,30.38,10.0,ENE,3.5,-,N/A,,Clear,60,2012-11-18 00:53:00
7:53 PM,43.0,30.9,62,30.37,10.0,Calm,Calm,-,N/A,,Clear,0,2012-11-18 01:53:00
8:53 PM,42.1,32.0,67,30.37,10.0,Calm,Calm,-,N/A,,Clear,0,2012-11-18 02:53:00
9:53 PM,39.0,30.9,73,30.38,10.0,Calm,Calm,-,N/A,,Clear,0,2012-11-18 03:53:00
10:53 PM,37.9,32.0,79,30.38,10.0,Calm,Calm,-,N/A,,Clear,0,2012-11-18 04:53:00
11:53 PM,37.9,33.1,83,30.38,8.0,Calm,Calm,-,N/A,,Clear,0,2012-11-18 05:53:00